This is the latest recevied weather packets stored in our database for station/object N1IJV-10. If no packets are shown the sender has not sent any weather packets the latest 10 day(s).
| Time | Temp. | Humidity | Pressure | Rain* | Wind** | Luminosity | Snow |
|---|---|---|---|---|---|---|---|
| 1777688076 | 3.33° C | 82% | 1018.4 hPa | 0 mm | - | 0 W/m² | - |
| 1777687773 | 3.33° C | 82% | 1018.4 hPa | 0 mm | - | 0 W/m² | - |
| 1777687471 | 3.33° C | 81% | 1018.1 hPa | 0 mm | - | 0 W/m² | - |
| 1777687167 | 3.89° C | 80% | 1017.9 hPa | 0 mm | - | 0 W/m² | - |
| 1777686866 | 3.89° C | 78% | 1018.1 hPa | 0 mm | - | 0 W/m² | - |
| 1777686562 | 3.89° C | 76% | 1018.2 hPa | 0 mm | - | 0 W/m² | - |
| 1777686259 | 3.89° C | 75% | 1018.1 hPa | 0 mm | - | 0 W/m² | - |
| 1777685955 | 3.89° C | 74% | 1017.9 hPa | 0 mm | - | 0 W/m² | - |
| 1777685651 | 4.44° C | 74% | 1018 hPa | 0 mm | - | 0 W/m² | - |
| 1777685348 | 4.44° C | 74% | 1017.8 hPa | 0 mm | - | 0 W/m² | - |
| 1777685046 | 4.44° C | 74% | 1017.7 hPa | 0 mm | - | 0 W/m² | - |
| 1777684743 | 4.44° C | 74% | 1017.4 hPa | 0 mm | - | 0 W/m² | - |
| 1777684438 | 4.44° C | 74% | 1017.7 hPa | 0 mm | - | 0 W/m² | - |
| 1777684136 | 5° C | 74% | 1017.3 hPa | 0 mm | - | 0 W/m² | - |
| 1777683832 | 5° C | 75% | 1017.2 hPa | 0 mm | - | 0 W/m² | - |
| 1777683529 | 5° C | 75% | 1017.2 hPa | 0 mm | - | 0 W/m² | - |
| 1777683227 | 5.56° C | 74% | 1017.3 hPa | 0 mm | - | 0 W/m² | - |
| 1777682924 | 5.56° C | 74% | 1017.2 hPa | 0 mm | - | 1 W/m² | - |
| 1777682620 | 5.56° C | 74% | 1017.1 hPa | 0 mm | - | 3 W/m² | - |
| 1777682318 | 6.11° C | 74% | 1017.1 hPa | 0 mm | - | 4 W/m² | - |
| 1777682015 | 6.11° C | 74% | 1017 hPa | 0 mm | - | 7 W/m² | - |
| 1777681711 | 6.67° C | 73% | 1016.8 hPa | 0 mm | - | 8 W/m² | - |
| 1777681408 | 6.67° C | 73% | 1016.9 hPa | 0 mm | - | 9 W/m² | - |
| 1777681106 | 6.67° C | 74% | 1016.7 hPa | 0 mm | - | 12 W/m² | - |
| 1777680803 | 7.22° C | 74% | 1016.7 hPa | 0 mm | - | 17 W/m² | - |
* Rain latest hour (hover to see other rain measurements)
** Current wind speed in m/s (hover to see current wind gust speed)